Location: Baia de Cri?
(46.1667°N, 22.7167°E)
Time: 19:00:38
(UTC+00:00)

Tiangong - Pass Details

Date: 14 March 2026
Orbit: 375 x 384 km, 41.5° (Epoch: 21 April)

Event Time Altitude Azimuth Distance (km) Brightness Sun altitude
Exits shadow 03:25:59 16° 203° (SSW) 1,109 -0.1 -14.3°
Maximum altitude 03:27:33 22° 163° (SSE) 888 -0.3 -14.0°
Drops below altitude 10° 03:30:08 10° 109° (ESE) 1,415 1.7 -13.6°
Sets 03:32:29 0° 94° (E) 2,275 3.5 -13.2°
